Location: Newark
(48.1500°N, 2.9667°W)
Time: 21:04:27
(UTC+00:00)

A-11 Canister half - Pass Details

Date: 22 January 2020
Orbit: 1524 x 1684 km, 47.3° (Epoch: 22 February)

Event Time Altitude Azimuth Distance (km) Brightness Sun altitude
Rises 01:56:11 0° 290° (WNW) 4,810 - -56.0°
Reaches altitude 10° 01:59:51 10° 279° (W) 3,846 - -55.6°
Maximum altitude 02:07:33 27° 227° (SW) 2,771 - -54.7°
Drops below altitude 10° 02:15:25 10° 175° (S) 3,919 - -53.8°
Sets 02:19:14 0° 164° (SSE) 4,916 - -53.3°
